Theta_e
337 336 334 329 326 324 323 322 321 322 320 318 318 318 318 316 315 315 314 313 312 312 312 313 313 313 313 312 312 312 312 312 314 313 312 312 313 312 310 308 306 305 304
336 336 334 330 329 324 324 323 321 323 321 319 319 319 318 316 315 315 314 313 313 312 312 312 312 312 313 313 312 313 314 314 313 313 311 310 309 308 305 306 306 306 305
336 335 335 332 325 325 324 323 323 323 323 321 319 318 318 316 315 314 313 313 312 313 312 312 312 312 313 313 314 314 315 312 312 312 309 307 305 304 305 305 306 305 305
338 335 334 333 330 328 324 322 320 322 322 322 319 318 318 317 315 313 311 311 312 312 312 313 312 312 312 313 314 315 313 312 309 307 305 304 304 304 304 305 305 306 306
337 337 335 335 333 328 326 323 321 320 320 320 318 317 317 316 314 311 309 309 311 311 312 313 312 313 312 310 311 311 311 309 305 304 304 305 304 304 305 305 305 305 305
334 335 335 334 332 330 327 325 323 321 319 317 316 316 316 315 313 311 311 310 310 312 312 312 312 313 312 311 308 306 305 305 304 305 305 304 304 304 305 305 305 306 306
333 332 332 332 330 329 326 324 324 320 318 317 318 318 318 317 311 312 310 308 310 309 313 313 313 312 313 311 307 303 301 301 301 304 305 304 304 304 305 305 305 305 306
331 333 332 331 330 328 325 325 323 320 319 318 318 318 318 315 312 311 309 310 310 311 311 313 313 313 312 310 308 306 307 306 306 306 304 303 303 303 303 304 305 305 305
326 328 331 331 330 328 327 328 323 319 319 318 316 316 315 313 313 311 311 311 312 313 313 314 313 314 312 309 306 307 305 305 306 304 303 303 302 301 302 302 304 304 305
322 324 326 328 330 331 329 328 326 319 318 317 315 314 314 313 313 312 312 313 312 312 313 312 313 311 311 307 303 306 305 305 306 305 303 303 303 303 302 303 303 303 303
320 320 323 326 327 328 328 328 325 320 317 315 314 313 313 313 312 312 312 312 311 313 311 313 313 311 306 305 302 304 306 305 304 304 303 303 303 302 302 302 302 303 302
320 319 320 323 325 326 327 326 324 320 317 315 314 314 313 313 313 313 312 311 310 311 312 312 311 308 304 303 302 302 302 302 302 303 303 302 302 302 302 301 301 302 302
318 319 319 320 322 324 325 325 324 320 317 315 314 313 313 314 311 310 307 308 310 310 311 311 309 303 299 301 302 302 301 302 303 304 303 303 302 302 302 302 302 302 302
313 315 318 319 319 321 323 323 323 320 317 316 315 314 314 313 312 312 310 310 310 309 307 304 301 301 303 303 303 303 303 303 304 303 302 303 302 302 301 301 301 301 300
312 313 315 317 316 319 322 319 319 319 318 315 315 315 314 313 312 312 311 311 309 308 306 304 304 305 305 305 305 305 304 304 304 304 303 303 302 301 301 301 300 299 298
313 310 310 312 315 316 320 321 317 318 317 316 316 315 312 311 313 310 312 309 307 304 302 305 305 305 305 304 303 303 302 302 303 303 302 301 301 301 301 300 297 297 298
311 311 310 309 311 316 319 321 319 316 316 315 316 313 313 314 311 311 310 305 299 299 303 305 305 305 304 303 302 301 301 301 301 301 301 301 301 300 298 297 297 297 297
311 310 309 309 311 314 316 321 318 313 313 315 315 313 313 311 311 309 304 299 300 301 303 305 304 303 302 301 300 300 300 300 301 301 300 299 298 297 297 297 296 296 296
310 308 307 309 313 316 319 319 317 313 313 313 313 314 311 309 305 299 298 303 305 305 305 303 302 301 301 300 300 300 300 300 299 299 298 297 296 296 296 296 296 295 295
310 309 309 310 311 315 318 318 314 313 310 312 309 307 302 299 298 299 301 304 304 303 302 301 300 300 299 299 299 300 300 299 298 297 296 295 295 296 296 296 296 296 296
310 309 310 314 312 318 317 315 310 308 306 304 304 302 301 302 304 305 305 304 303 301 300 300 299 299 299 299 300 299 298 298 296 294 294 295 295 294 294 294 295 295 295
310 309 310 316 317 318 315 308 307 304 304 303 303 301 300 303 306 305 304 303 301 299 299 298 298 299 299 299 298 297 297 295 295 294 294 294 293 292 292 292 294 295 294
310 310 312 316 317 313 309 307 306 305 305 304 302 301 302 306 304 304 303 301 299 299 298 298 299 299 298 298 297 296 295 294 294 293 293 292 290 291 291 292 293 294 293
311 310 311 316 314 313 311 308 307 307 306 305 304 303 305 304 303 302 301 299 299 298 298 298 298 298 297 297 296 296 294 291 290 293 291 289 290 291 292 292 293 294 295
313 313 311 317 314 313 310 308 308 307 305 304 305 304 303 303 302 301 299 298 298 297 298 298 298 297 297 297 296 293 291 289 290 290 289 290 292 293 293 294 295 296 296
313 312 316 316 314 313 310 309 309 308 306 304 303 303 303 301 301 299 298 297 297 298 298 298 297 296 296 296 293 291 289 291 291 290 290 292 294 295 295 296 297 297 297
Wind_Speed
9 11 11 13 17 21 25 25 23 19 20 20 19 17 15 14 12 12 11 9 11 12 11 9 9 8 10 8 8 11 12 15 14 21 23 19 16 16 16 20 20 20 19
7 7 9 11 12 16 21 23 21 18 17 18 18 17 15 13 12 12 12 13 13 14 14 12 12 11 9 10 12 12 15 15 16 20 20 17 15 13 17 18 15 15 13
5 7 7 9 13 16 19 22 18 18 19 19 19 18 17 16 13 12 11 13 13 15 16 14 12 12 11 14 13 14 15 14 17 14 19 17 17 16 15 16 11 14 12
4 6 8 9 12 14 15 19 22 19 19 18 19 18 17 16 16 13 11 8 14 15 17 16 14 14 13 15 13 14 11 12 15 16 17 16 15 13 15 13 15 14 13
6 6 7 8 10 13 13 15 18 20 19 21 20 19 20 17 15 14 9 10 15 15 18 15 15 15 15 14 11 12 10 12 15 15 15 17 16 18 17 14 15 14 14
5 7 6 6 8 11 13 14 17 21 18 23 21 22 21 20 20 19 14 14 15 19 20 15 15 15 13 12 11 11 7 7 11 12 16 16 15 18 14 14 16 12 12
5 4 5 5 7 9 11 16 15 17 18 21 19 22 22 20 21 16 13 20 14 21 19 17 16 15 8 10 9 9 8 7 9 8 13 15 18 18 17 17 15 12 14
8 7 4 4 7 8 10 13 15 20 20 21 21 21 22 20 21 16 20 17 18 23 21 19 18 16 12 9 8 12 10 10 10 9 12 15 17 17 16 17 17 16 17
12 11 8 6 6 8 10 11 12 15 21 22 23 23 23 21 18 18 19 17 19 22 23 19 17 13 13 12 14 14 11 12 10 10 10 14 13 12 10 13 13 12 13
10 11 11 10 10 11 10 10 10 13 21 23 24 27 23 21 19 19 17 18 17 19 19 18 19 13 13 16 16 14 13 12 9 11 14 12 10 7 7 8 11 10 10
10 11 11 12 11 10 12 12 10 13 16 19 23 22 24 21 20 21 20 19 17 16 18 18 14 10 16 15 16 14 13 11 12 14 11 12 6 6 8 10 11 10 13
10 11 11 12 12 12 11 13 12 13 14 18 17 19 23 22 21 17 17 17 17 17 22 19 4 8 11 14 16 16 17 14 14 15 14 12 11 10 8 10 11 13 13
11 12 13 12 12 12 12 13 11 14 15 14 17 19 20 22 21 16 14 21 21 21 15 10 7 8 8 11 14 16 16 12 15 17 15 13 12 13 11 12 13 12 14
12 14 14 15 13 13 14 12 11 13 13 14 16 17 19 23 21 16 17 21 19 14 11 10 7 8 11 11 10 13 13 16 11 15 17 15 14 12 12 11 13 16 17
11 13 14 15 15 15 12 14 9 12 15 18 19 19 22 18 23 14 15 16 13 11 9 9 9 13 14 13 10 9 12 12 10 13 16 14 16 15 13 12 14 17 17
13 16 17 18 17 17 13 11 12 10 11 17 20 22 23 18 15 13 17 14 13 10 9 10 10 10 10 9 9 11 11 10 8 9 14 15 15 14 14 15 16 15 17
17 17 19 21 20 16 11 10 10 9 10 15 17 17 17 15 12 12 13 13 10 10 9 10 9 9 8 9 10 9 8 8 10 12 12 13 14 15 15 15 16 16 16
17 18 19 21 19 16 13 7 8 9 15 20 18 16 14 9 9 12 13 11 9 10 12 9 7 7 8 8 8 8 9 10 10 11 14 14 14 15 15 16 15 15 14
20 22 20 18 16 12 9 7 7 10 15 23 20 17 11 9 12 12 12 9 8 7 5 6 6 7 7 7 7 8 8 9 11 12 14 14 15 16 16 16 15 13 11
20 22 19 19 17 11 8 6 6 15 20 24 17 14 17 17 13 11 11 10 5 4 4 6 5 6 7 7 8 9 9 11 12 13 14 15 15 15 15 15 14 13 9
18 21 14 13 15 6 5 3 9 15 17 16 13 11 18 15 13 10 6 3 2 3 3 5 6 5 6 6 8 10 11 12 13 14 14 15 14 13 13 13 13 11 8
19 19 16 9 9 6 4 7 16 20 23 21 15 11 17 9 8 6 4 1 1 2 2 4 5 5 6 8 10 11 12 13 13 14 14 12 11 11 10 9 9 7 7
20 18 15 10 5 7 10 16 18 20 20 18 13 12 11 8 8 6 4 1 1 2 2 3 4 5 7 9 10 11 12 12 12 14 12 11 11 9 8 7 7 7 8
20 16 18 9 11 10 17 20 21 19 14 11 11 13 10 8 7 5 3 2 1 2 2 3 4 6 8 9 10 11 10 10 12 10 9 9 7 7 7 7 7 6 7
16 12 13 11 15 17 20 20 19 13 13 12 12 11 10 9 7 4 2 2 2 1 1 3 4 7 9 11 9 9 13 13 11 11 7 5 6 7 5 5 4 3 5
12 13 9 15 16 21 20 19 14 12 12 12 11 11 9 7 4 3 3 2 1 1 2 4 5 8 10 9 10 14 11 12 12 8 3 3 5 5 5 5 6 4 2
Wind_Direction
220 221 225 220 224 226 223 214 205 204 199 193 195 199 200 195 204 215 225 232 228 235 238 235 248 262 270 282 290 293 297 293 313 302 306 319 311 303 309 311 308 303 300
231 233 222 213 209 207 212 216 210 216 209 205 201 205 206 207 208 217 228 242 237 238 241 245 256 259 261 272 278 289 307 299 295 306 309 304 294 318 312 311 306 315 322
229 234 240 223 209 211 217 218 216 214 213 211 209 208 208 205 211 218 222 242 254 251 248 253 260 260 267 282 291 299 292 310 318 300 307 312 324 308 315 311 320 304 305
245 235 238 236 231 222 221 224 221 217 215 216 215 209 213 208 214 211 202 239 266 264 257 253 258 262 272 284 292 291 296 311 314 303 314 309 312 318 313 311 310 323 319
274 255 247 244 233 227 221 224 228 226 216 206 209 213 211 206 210 209 199 230 271 266 262 252 253 259 266 270 292 311 308 312 318 306 311 316 334 327 323 317 311 309 310
305 292 265 251 242 240 235 226 231 232 219 219 222 221 208 202 201 206 204 226 247 271 258 254 261 268 262 260 262 256 264 293 294 307 312 330 318 319 309 309 300 321 313
9 301 286 263 250 247 250 249 241 229 226 224 219 216 212 203 197 192 208 212 252 269 270 255 263 274 244 253 242 245 258 268 266 291 301 316 315 313 310 309 309 309 299
10 359 325 259 253 255 242 243 234 234 230 220 218 208 203 195 197 198 199 230 265 267 266 261 261 263 249 240 245 246 258 254 235 276 307 309 306 304 305 302 300 305 302
7 4 347 320 284 268 256 255 246 238 231 228 219 209 200 203 201 198 208 236 257 267 268 250 257 258 245 243 227 256 274 276 250 261 306 310 313 297 310 299 307 319 319
3 356 346 332 310 298 282 266 257 244 239 236 225 223 210 208 205 205 222 240 258 258 262 266 258 242 241 235 228 261 266 279 292 303 303 297 286 304 303 301 312 317 318
354 351 345 339 326 307 299 286 254 248 249 227 220 208 213 211 206 204 212 233 245 265 274 267 252 242 224 235 236 252 267 280 289 276 295 293 258 270 290 301 299 299 304
339 340 340 333 329 320 301 291 268 248 235 223 205 196 196 204 207 192 204 237 247 269 277 272 234 220 236 242 241 244 256 269 273 272 281 294 308 311 312 311 307 302 290
328 324 328 331 330 325 316 302 271 257 233 214 196 182 178 195 181 193 205 229 247 261 267 271 244 254 236 240 243 242 255 258 263 270 287 300 309 315 310 300 300 296 295
318 319 321 324 329 322 320 321 290 260 224 204 185 178 171 169 188 192 223 239 250 231 244 248 229 223 236 258 259 241 241 257 285 295 300 303 306 307 305 305 301 296 294
306 312 310 309 320 316 324 317 306 277 253 201 188 176 161 177 191 203 213 228 217 216 212 231 232 233 248 248 258 263 266 272 248 249 273 290 297 301 303 293 300 309 301
286 296 310 309 310 311 316 315 312 290 264 213 192 185 186 187 201 207 227 216 202 212 211 247 255 263 273 290 298 300 297 288 284 286 290 295 303 307 308 314 303 302 304
279 288 292 298 297 299 302 298 300 305 221 196 182 186 196 210 194 219 204 190 189 193 235 262 269 284 293 299 299 304 302 310 306 289 308 303 304 307 307 306 306 305 305
276 279 281 287 286 286 298 280 275 228 185 175 176 190 218 220 205 187 174 167 188 220 254 275 286 296 294 301 304 305 306 304 306 314 309 307 307 307 307 304 304 305 310
274 281 289 286 271 280 293 278 258 224 185 171 172 188 183 175 169 167 172 211 249 268 273 281 296 296 298 296 296 304 309 308 314 306 308 311 313 311 306 303 303 298 289
276 266 274 277 275 265 271 274 227 190 180 168 166 158 150 153 160 173 200 229 249 286 304 299 301 299 295 308 315 309 310 317 317 317 320 318 316 313 309 307 303 302 310
278 276 269 261 264 259 236 219 192 165 143 124 118 154 161 172 181 191 188 186 277 314 316 302 298 306 310 319 313 321 322 322 324 324 323 323 328 322 315 310 307 311 316
269 271 267 257 244 210 188 168 154 138 132 132 138 164 189 224 175 167 143 142 346 326 322 308 317 333 334 330 326 324 328 330 331 331 329 331 324 319 314 308 306 319 324
260 258 243 224 236 143 138 137 132 135 132 139 144 186 193 186 161 141 138 98 342 330 356 346 329 341 343 330 329 332 334 336 335 331 327 323 322 321 320 316 318 318 310
253 236 244 144 149 158 149 142 143 142 143 154 177 188 181 164 141 131 125 105 112 41 15 346 358 349 340 342 342 341 341 327 332 329 328 320 318 326 320 313 309 309 310
240 207 224 150 158 160 149 147 148 151 156 173 179 168 154 147 139 132 121 108 80 23 359 6 357 347 348 350 352 349 332 337 340 332 330 316 311 319 317 309 296 302 315
209 229 150 163 162 160 153 145 153 166 161 164 158 150 144 138 129 127 114 111 102 61 14 355 351 350 352 356 340 338 344 346 347 344 345 318 316 321 313 295 299 308 271